Flag for U.S.A. Weather past 2 weeks in Kodiak, Alaska, U.S.A.

Now
45 °F

Light rain. Fog.


Feels Like: 38 °F
Forecast: 41 / 46 °F
Wind: 17 mph from North

Location: Kodiak Weather Reporting Station

Current Time: Apr 26, 2015 at 8:56:08 PM

Latest Report: Apr 26, 2015 at 7:53 PM


Visibility: 5 mi

Pressure: 29.51 "Hg

Humidity: 86%

Dew point: 41 °F

Location of KodiakLocation

Historic Weather in Kodiak — Graph

°F

Kodiak temperature yesterday

Maximum temperature yesterday: 45 °F (at 3:53 PM)
Minimum temperature yesterday: 38 °F (at 1:53 AM)
Average temperature yesterday: 42 °F

Past Weeks' High & Low Weather Summary

 TemperatureHumidityPressure
High49 °F (Apr 26, 12:53 PM)100% (Apr 16, 9:53 AM)30.03 "Hg (Apr 16, 9:53 AM)
Low24 °F (Apr 12, 7:53 AM)24% (Apr 12, 4:53 PM)29.08 "Hg (Apr 14, 5:53 PM)
Average39 °F79%29.58 "Hg
* Reported Apr 11 6:53 PM — Apr 26 6:53 PM, Kodiak, Weather by CustomWeather, © 2015

Note: Actual official high and low records may vary slightly from our data, if they occured in-between our weather recording intervals... More about our weather records

Advertising

Kodiak weather history for previous 24 hours

 ConditionsComfort  
Time TempWeatherWind HumidityBarometerVisibility
6:53 PM
Sun, Apr 26
45 °FRain. Fog.15 mph90%29.50 "Hg3 mi
5:53 PM47 °FLight rain. Cloudy.9 mph64%29.49 "Hg10 mi
4:53 PM49 °FBroken clouds.15 mph61%29.48 "Hg10 mi
3:53 PM48 °FLight rain. More clouds than sun.15 mph66%29.49 "Hg10 mi
2:53 PM45 °FLight rain. More clouds than sun.20 mph80%29.48 "Hg6 mi
1:53 PM44 °FLight rain. More clouds than sun.17 mph79%29.50 "Hg4 mi
12:53 PM49 °FLight rain. Cloudy.12 mph55%29.49 "Hg10 mi
11:53 AM46 °FCloudy.21 mph66%29.48 "Hg10 mi
10:53 AM46 °FMore clouds than sun.20 mph66%29.48 "Hg10 mi
9:53 AM42 °FLight rain. More clouds than sun.16 mph79%29.51 "Hg8 mi
8:53 AM44 °FLight rain. Overcast.12 mph65%29.52 "Hg10 mi
7:53 AM46 °FLight rain. Mostly cloudy.17 mph50%29.51 "Hg10 mi
6:53 AM47 °FOvercast.17 mph48%29.51 "Hg10 mi
5:53 AM46 °FOvercast.15 mph54%29.52 "Hg10 mi
4:53 AM46 °FMostly cloudy.16 mph56%29.53 "Hg10 mi
3:53 AM45 °FMostly cloudy.16 mph58%29.54 "Hg10 mi
2:53 AM44 °FMostly cloudy.16 mph60%29.56 "Hg10 mi
1:53 AM45 °FPassing clouds.14 mph53%29.58 "Hg10 mi
12:53 AM44 °FOvercast.13 mph55%29.59 "Hg10 mi
11:53 PM
Sat, Apr 25
42 °FOvercast.13 mph68%29.61 "Hg10 mi
11:00 PM42 °FMostly cloudy.10 mph76%29.63 "Hg10 mi
9:53 PM42 °FMostly cloudy.15 mph85%29.64 "Hg10 mi
8:53 PM43 °FMostly cloudy.18 mph82%29.65 "Hg10 mi
Weather by CustomWeather, © 2015

See weather overviewHow to use our weather pages